FW0277 Weather Reports


time (UTC)temp
C
wind
direction
speed
KPH
gust
KPH
rain 1hr
cm
rain 24hr
cm
rain mn
cm
humidity
%
barometer
mb
20260906093004 21 96 0.0 0.0 0.00 0.00 0.00 97 1012.3
20260906091504 21 96 0.0 0.0 0.00 0.00 0.00 97 1012.4
20260906090004 21 96 0.0 0.0 0.00 0.00 0.00 97 1012.4
20260906084503 20 113 0.0 0.0 0.00 0.00 0.00 97 1012.3
20260906083003 20 113 0.0 0.0 0.00 0.00 0.00 97 1012.3
20260906081501 20 117 0.0 0.0 0.00 0.00 0.00 96 1012.2
20260906080103 20 118 0.0 0.0 0.00 0.00 0.00 96 1012.1
20260906074558 21 117 0.0 0.0 0.00 0.00 0.00 96 1011.9
20260906073057 21 117 0.0 0.0 0.00 0.00 0.00 95 1011.8
20260906071600 21 335 0.0 0.0 0.00 0.00 0.00 96 1011.6
20260906070058 21 79 0.0 0.0 0.00 0.00 0.00 95 1011.7
20260906064554 21 79 0.0 0.0 0.00 0.00 0.00 95 1012.1
20260906063051 21 79 0.0 0.0 0.00 0.00 0.00 95 1012.5
20260906061551 21 95 0.0 0.0 0.00 0.00 0.00 94 1012.4
20260906060049 21 152 0.0 0.0 0.00 0.00 0.00 93 1012.5
20260906054559 21 152 0.0 0.0 0.00 0.00 0.00 93 1012.6
20260906053045 21 152 0.0 0.0 0.00 0.00 0.00 93 1012.6
20260906051603 21 152 0.0 0.0 0.00 0.00 0.00 92 1012.7
20260906050045 21 152 0.0 0.0 0.00 0.00 0.00 92 1012.8
20260906044550 21 152 0.0 0.0 0.00 0.00 0.00 92 1012.9
20260906043043 21 152 0.0 0.0 0.00 0.00 0.00 90 1012.9
20260906041537 22 152 0.0 0.0 0.00 0.00 0.00 90 1012.9
20260906040058 21 153 0.0 0.0 0.00 0.00 0.00 90 1012.9
20260906034533 22 153 0.0 0.0 0.00 0.00 0.00 89 1012.9
20260906033044 22 153 0.0 0.0 0.00 0.00 0.00 89 1013.1
20260906031531 22 153 0.0 0.0 0.00 0.00 0.00 89 1013.0
20260906030032 22 113 0.0 0.0 0.00 0.00 0.00 90 1012.9
20260906024531 22 112 0.0 0.0 0.00 0.00 0.00 90 1013.0
20260906023031 22 110 0.0 0.0 0.00 0.00 0.00 89 1012.7
20260906021530 22 103 0.0 0.0 0.00 0.00 0.00 88 1012.6
20260906020029 23 103 0.0 0.0 0.00 0.00 0.00 87 1012.5
20260906014530 23 102 0.0 0.0 0.00 0.00 0.00 86 1012.2
20260906013030 23 90 0.0 0.0 0.00 0.00 0.00 85 1012.4
20260906011528 23 103 0.0 0.0 0.00 0.00 0.00 84 1012.2
20260906010027 23 321 0.0 0.0 0.00 0.00 0.00 84 1012.0
20260906004527 23 127 0.0 0.0 0.00 0.00 0.00 82 1011.5
20260906003026 24 128 0.0 0.0 0.00 0.00 0.00 78 1011.6
20260906001526 25 109 0.0 0.0 0.00 0.00 0.00 74 1011.7
20260906000024 27 345 0.0 0.0 0.00 0.00 0.00 68 1011.7
20260905234524 30 84 0.0 0.0 0.00 0.00 0.00 75 1011.7
20260905233023 31 294 0.0 0.0 0.00 0.00 0.00 73 1011.5
20260905231523 31 295 0.0 0.0 0.00 0.00 0.00 72 1011.2
20260905230022 31 169 0.0 0.0 0.00 0.00 0.00 69 1011.3
20260905224553 33 169 0.0 0.0 0.00 0.00 0.00 64 1011.3
20260905223022 33 112 0.0 0.0 0.00 0.00 0.00 63 1011.2
20260905221520 32 221 0.0 0.0 0.00 0.00 0.00 65 1011.1
20260905220019 31 222 0.0 0.0 0.00 0.00 0.00 68 1011.3
20260905214517 31 169 0.0 0.0 0.00 0.00 0.00 67 1011.4
20260905213016 32 122 0.0 0.0 0.00 0.00 0.00 66 1011.6
20260905211535 31 229 0.0 0.0 0.00 0.00 0.00 71 1011.6
20260905210021 31 153 0.0 0.0 0.00 0.00 0.00 71 1011.7
20260905204513 30 186 0.0 0.0 0.00 0.00 0.00 74 1011.9
20260905203011 31 140 0.0 0.0 0.00 0.00 0.00 69 1011.9
20260905201510 32 165 0.0 0.0 0.00 0.00 0.00 65 1012.0
20260905200020 32 137 0.0 0.0 0.00 0.00 0.00 63 1012.1
20260905194508 34 89 0.0 0.0 0.00 0.00 0.00 59 1012.3
20260905193005 34 117 0.0 0.0 0.00 0.00 0.00 62 1012.5
20260905191502 33 250 0.0 0.0 0.00 0.00 0.00 64 1012.8
20260905190104 33 122 0.0 0.0 0.00 0.00 0.00 61 1013.1
20260905184603 33 316 0.0 0.0 0.00 0.00 0.00 64 1013.0
20260905183054 32 266 0.0 0.0 0.00 0.00 0.00 66 1013.2
20260905181553 31 36 0.0 0.0 0.00 0.00 0.00 71 1013.4
20260905174552 29 6 0.0 0.0 0.00 0.00 0.00 76 1014.1
20260905173106 29 310 0.0 0.0 0.00 0.00 0.00 76 1014.3
20260905171551 30 291 0.0 0.0 0.00 0.00 0.00 75 1014.1
20260905164556 32 328 0.0 0.0 0.00 0.00 0.00 65 1014.5
20260905163048 33 347 0.0 0.0 0.00 0.00 0.00 64 1014.3
20260905161602 32 352 0.0 0.0 0.00 0.00 0.00 68 1014.4
20260905160044 32 91 0.0 0.0 0.00 0.00 0.00 69 1014.4
20260905154539 31 95 0.0 0.0 0.00 0.00 0.00 72 1014.4
20260905153037 31 309 0.0 0.0 0.00 0.00 0.00 74 1014.4
20260905151534 30 183 0.0 0.0 0.00 0.00 0.00 75 1014.5
20260905150030 30 256 0.0 0.0 0.00 0.00 0.00 77 1014.6
20260905144526 28 272 0.0 0.0 0.00 0.00 0.00 81 1014.7
20260905143023 27 296 0.0 0.0 0.00 0.00 0.00 80 1014.8
20260905141522 27 199 0.0 0.0 0.00 0.00 0.00 81 1014.7
20260905140022 27 174 0.0 0.0 0.00 0.00 0.00 80 1014.9
20260905134520 27 121 0.0 0.0 0.00 0.00 0.00 82 1014.7
20260905133024 27 215 0.0 0.0 0.00 0.00 0.00 83 1014.9
20260905131520 26 129 0.0 0.0 0.00 0.00 0.00 85 1015.0
20260905130011 26 124 0.0 0.0 0.00 0.00 0.00 85 1015.2
20260905124508 26 134 0.0 0.0 0.00 0.00 0.00 90 1015.2
20260905123005 23 158 0.0 0.0 0.00 0.00 0.00 95 1015.2
20260905121504 22 12 0.0 0.0 0.00 0.00 0.00 96 1015.1
20260905120002 22 346 0.0 0.0 0.00 0.00 0.00 95 1014.9
20260905114502 22 301 0.0 0.0 0.00 0.00 0.00 94 1014.6
20260905113059 22 301 0.0 0.0 0.00 0.00 0.00 94 1014.3
20260905111559 22 301 0.0 0.0 0.00 0.00 0.00 93 1014.3
20260905110058 22 301 0.0 0.0 0.00 0.00 0.00 93 1014.2
20260905104556 22 301 0.0 0.0 0.00 0.00 0.00 92 1014.0
20260905103058 22 305 0.0 0.0 0.00 0.00 0.00 93 1013.8
20260905101602 22 304 0.0 0.0 0.00 0.00 0.00 93 1013.7
20260905100120 22 335 0.0 0.0 0.00 0.00 0.00 93 1013.7
20260905094555 22 318 0.0 0.0 0.00 0.00 0.00 94 1013.5